Weather History for Farnborough, United Kingdom

Change the Weather History Date:

Wednesday, December 5, 2012

  Actual Average (EGLL) Record (EGLL)
Temperature  
Mean Temperature 32 °F -  
Max Temperature 39 °F 47 °F 59 °F (2006)
Min Temperature 25 °F 38 °F 26 °F (1998)
Degree Days  
Heating Degree Days 33    
Moisture  
Dew Point 30 °F    
Average Humidity 83    
Maximum Humidity 100    
Minimum Humidity 60    
Precipitation  
Precipitation 0.02 in - - ()
Sea Level Pressure  
Sea Level Pressure 29.82 in    
Wind  
Wind Speed 7 mph ()    
Max Wind Speed 15 mph    
Max Gust Speed 23 mph    
Visibility 6.5 miles    
Events Snow    
Averages and records for this station are not official NWS values.
T = Trace of Precipitation, MM = Missing Value Source: Averaged Metar Reports

Daily Weather History Graph

Daily Weather History Graph

Search for Another Location

Airport:

Trip Planner

Search our weather history database for the weather conditions in past years. The results will help you decide how hot, cold, wet, or windy it might be!

Date:

Astronomy

Dec. 05, 2012 Rise Set
Actual Time 7:51 AM GMT 3:56 PM GMT
Civil Twilight 7:11 AM GMT 4:35 PM GMT
Nautical Twilight 6:29 AM GMT 5:18 PM GMT
Astronomical Twilight 5:49 AM GMT 5:58 PM GMT
Moon 11:04 PM GMT (12/5) 11:37 AM GMT (12/5)
Length of Visible Light 9h 23m
Length of Day
8h 05m
Waning Gibbous, 62% of the Moon is Illuminated
Dec 5
Waning Gibbous
Dec 6
Last Quarter
Dec 13
New
Dec 20
First Quarter
Dec 28
Full

Hourly Weather History & Observations

Time (GMT) Temp. Windchill Dew Point Humidity Pressure Visibility Wind Dir Wind Speed Gust Speed Precip Events Conditions
2:50 AM 26 °F - 25 °F 92% 29.62 in 6 mi WSW 2.3 mph - -  
5:50 AM 25 °F - 23 °F 91% 29.65 in 11 mi WNW 1.2 mph - -   Scattered Clouds
6:50 AM 28.4 °F 24.6 °F 28.4 °F 100% 29.65 in 4.3 mi West 3.5 mph - N/A   Scattered Clouds
7:20 AM 32.0 °F 28.7 °F 32.0 °F 100% 29.68 in 1.2 mi Variable 3.5 mph - N/A Snow Snow
7:50 AM 32.0 °F 27.5 °F 32.0 °F 100% 29.68 in - WNW 4.6 mph - N/A Snow Light Snow
8:20 AM 33.8 °F 27.0 °F 32.0 °F 93% 29.71 in 5.0 mi NW 8.1 mph - N/A   Mostly Cloudy
8:50 AM 34 °F - 33 °F 93% 29.75 in 1 mi NNW 10.4 mph - -   Overcast
8:50 AM 32.0 °F 23.0 °F 32.0 °F 100% 29.74 in 1.2 mi NNW 11.5 mph - N/A   Overcast
9:20 AM 33.8 °F 26.4 °F 32.0 °F 93% 29.74 in 3.7 mi North 9.2 mph - N/A   Mostly Cloudy
9:50 AM 33.8 °F 26.4 °F 33.8 °F 100% 29.77 in 5.6 mi North 9.2 mph - N/A   Mostly Cloudy
10:20 AM 35.6 °F 27.5 °F 33.8 °F 93% 29.77 in 6.2 mi NNW 11.5 mph - N/A   Mostly Cloudy
10:50 AM 35.6 °F 27.5 °F 33.8 °F 93% 29.77 in 6.2 mi NNW 11.5 mph - N/A   Partly Cloudy
11:20 AM 37.4 °F 29.3 °F 33.8 °F 87% 29.77 in 6.2 mi NNW 12.7 mph - N/A   Scattered Clouds
11:50 AM 37 °F - 32 °F 75% 29.81 in 8 mi NNW 10.4 mph - -   Mostly Cloudy
11:50 AM 37.4 °F 30.3 °F 32.0 °F 81% 29.80 in 6.2 mi NNW 10.4 mph - N/A   Scattered Clouds
12:20 PM 37.4 °F 28.5 °F 32.0 °F 81% 29.80 in 6.2 mi NNW 15.0 mph - N/A   Scattered Clouds
12:50 PM 37.4 °F 29.8 °F 32.0 °F 81% 29.80 in - NW 11.5 mph 23.0 mph N/A   Partly Cloudy
2:50 PM 38 °F - 29 °F 60% 29.84 in 13 mi NW 12.7 mph - -   Scattered Clouds
2:50 PM 37.4 °F 29.3 °F 30.2 °F 75% 29.83 in 6.2 mi NW 12.7 mph - N/A   Partly Cloudy
3:20 PM 37.4 °F 30.3 °F 30.2 °F 75% 29.83 in 6.2 mi WNW 10.4 mph - N/A   Partly Cloudy
3:50 PM 37.4 °F 30.8 °F 30.2 °F 75% 29.86 in 6.2 mi NW 9.2 mph - N/A   Unknown
4:20 PM 35.6 °F 29.2 °F 28.4 °F 75% 29.86 in 6.2 mi NW 8.1 mph - N/A   Partly Cloudy
4:50 PM 35.6 °F 32.8 °F 28.4 °F 75% 29.86 in 6.2 mi WNW 3.5 mph - N/A   Partly Cloudy
5:20 PM 33.8 °F 28.6 °F 28.4 °F 81% 29.89 in 6.2 mi NW 5.8 mph - N/A   Partly Cloudy
5:50 PM 35 °F - 28 °F 66% 29.92 in 14 mi North 8.1 mph - -   Mostly Cloudy
5:50 PM 35.6 °F 28.0 °F 28.4 °F 75% 29.89 in 6.2 mi NNW 10.4 mph - N/A   Scattered Clouds
6:20 PM 35.6 °F 26.6 °F 28.4 °F 75% 29.92 in 6.2 mi NNW 13.8 mph - N/A   Scattered Clouds
6:50 PM 33.8 °F 25.3 °F 26.6 °F 75% 29.92 in 6.2 mi NW 11.5 mph - N/A   Partly Cloudy
7:20 PM 33.8 °F 27.0 °F 26.6 °F 75% 29.92 in - NW 8.1 mph - N/A   Clear
7:50 PM 33.8 °F 27.0 °F 26.6 °F 75% 29.95 in - NW 8.1 mph - N/A   Clear
8:20 PM 32.0 °F 26.4 °F 26.6 °F 80% 29.95 in - WNW 5.8 mph - N/A   Clear
8:50 PM 32 °F - 26 °F 70% 29.98 in 11 mi WNW 6.9 mph - -  
8:50 PM 32.0 °F 26.4 °F 26.6 °F 80% 29.98 in - WNW 5.8 mph - N/A   Clear
11:50 PM 30 °F - 25 °F 75% 30.04 in 11 mi WNW 5.8 mph - -